« Back
NWS Peachtree City, Ga » Text Product » GA Regional Weather Roundup


Printer-friendly Version
Current Version              Previous Versions:   1  2  3  4  5  6  7  8  9  

Regional Weather Roundup

925
ASUS42 KFFC 171703
RWRGA
WEATHER ROUNDUP FOR GEORGIA
NATIONAL WEATHER SERVICE PEACHTREE CITY GA
1200 PM EST WED DEC 17 2014

NOTE: "FAIR" INDICATES FEW OR NO CLOUDS BELOW 12,000 FEET WITH NO
SIGNIFICANT WEATHER AND/OR OBSTRUCTIONS TO VISIBILITY.

* = USE WITH CAUTION. THE STATIONS MARKED WITH AN ASTERISK MAY NOT
REPORT WEATHER SUCH AS PRECIPITATION, FOG, OR THUNDER AND ARE NOT
QUALITY CONTROLLED BY NWS.

THE REMARK "TC" DENOTES TEMPERATURE READING IN DEGREES CELSIUS.

GAZ001>058-171800-
NORTH GEORGIA

CITY           SKY/WX    TMP DP  RH WIND       PRES   REMARKS
ATLANTA        PTSUNNY   48  37  65 NW9       30.20F
ATHENS         SUNNY     55  37  50 VRB6      30.15F
CHAMBLEE       MOSUNNY   48  37  65 W9        30.19F
PEACHTREE CITY MOSUNNY   48  38  68 W10       30.22F
ROME           CLOUDY    44  38  79 N7        30.24F
WEST ATLANTA   CLOUDY    46  37  71 W7        30.21F
GAINESVILLE    SUNNY     50  37  61 W7        30.16F
CARTERSVILLE   CLOUDY    43  36  76 VRB5      30.24F


CITY           SKY/WX    TMP DP  RH WIND       PRES   REMARKS
DALTON*        CLOUDY    43  37  81 N14       30.25S
LAWRENCEVILLE* SUNNY     48  34  57 W7        30.16F
MARIETTA       PTSUNNY   46  38  72 NW8       30.20F
KENNESAW*      CLOUDY    45  34  65 SE9G17    30.23F
$$

GAZ059>098-102>109-171800-
CENTRAL GEORGIA

CITY           SKY/WX    TMP DP  RH WIND       PRES   REMARKS
AUGUSTA-BUSH   SUNNY     56  39  53 CALM      30.16F
AUGUSTA-DANIEL SUNNY     55  39  54 CALM      30.16F
COLUMBUS       SUNNY     53  37  54 N3        30.22F
MACON          SUNNY     54  38  54 NW7       30.18F
ROBINS AFB     SUNNY     54  38  55 NW7       30.18F


CITY           SKY/WX    TMP DP  RH WIND       PRES   REMARKS
LAGRANGE*      SUNNY     53  42  67 N6        30.23F
SYLVANIA*      SUNNY     62  44  52 CALM      30.16F
MILLEDGEVILLE* SUNNY     54  43  66 NW3       30.18F
$$

GAZ099>101-110>166-171800-
SOUTH GEORGIA

CITY           SKY/WX    TMP DP  RH WIND       PRES   REMARKS
SAVANNAH       PTSUNNY   60  40  47 CALM      30.16F
VALDOSTA       SUNNY     58  41  53 CALM      30.20F
ALMA           SUNNY     57  39  51 W5        30.17F
ST SIMONS      SUNNY     58  41  53 SW7       30.17F
FT STEWART     SUNNY     58  40  51 VRB1      30.15F
ALBANY         SUNNY     57  40  52 VRB3      30.22F
HUNTER AFB     SUNNY     59  41  51 VRB2      30.14F
MOODY AFB      SUNNY     58  41  53 NW5       30.19F
BRUNSWICK      SUNNY     59  41  51 SW6       30.19F


CITY           SKY/WX    TMP DP  RH WIND       PRES   REMARKS
BAINBRIDGE*    SUNNY     59  43  55 CALM      30.22F
MOULTRIE*      SUNNY     55  43  62 NW3       30.21F
VIDALIA*       SUNNY     55  43  62 W5        30.17F
WAYCROSS*      SUNNY     60  44  55 NW5       30.18F
DOUGLAS*       SUNNY     59  39  47 W3        30.19F
$$



USA.gov is the U.S. government's official web portal to all federal, state and local government web resources and services.